Spokane Felts, WA

1:14 AM PDT on June 25, 2017 (GMT -0700)
Felts

Weather History for KSFF - November, 2013

Change the Weather History Date:

Saturday, November 2, 2013

  Actual Average Record
Temperature  
Mean Temperature 47 °F 42 °F  
Max Temperature 54 °F 50 °F 62 °F (2016)
Min Temperature 39 °F 33 °F 16 °F (2002)
Degree Days  
Heating Degree Days 18 23  
Month to date heating degree days 40 46  
Since 1 July heating degree days 734 783  
Cooling Degree Days 0 0  
Month to date cooling degree days 0 0  
Year to date cooling degree days 704 406  
Moisture  
Dew Point 38 °F    
Average Humidity 73    
Maximum Humidity 96    
Minimum Humidity 49    
Precipitation  
Precipitation 0.31 in 0.06 in 0.44 in (2004)
Month to date precipitation 0.31 0.12  
Year to date precipitation 12.17 13.07  
Sea Level Pressure  
Sea Level Pressure 29.71 in    
Wind  
Wind Speed 12 mph (SW)    
Max Wind Speed 33 mph    
Max Gust Speed 46 mph    
Visibility 9 miles    
Events Rain    
T = Trace of Precipitation, MM = Missing Value Source: NWS Daily Summary

Daily Weather History Graph

Daily Weather History Graph

Search for Another Location

Airport or City:

Trip Planner

Search our weather history database for the weather conditions in past years. The results will help you decide how hot, cold, wet, or windy it might be!

Date:

Astronomy

Nov. 02, 2013 Rise Set
Actual Time 7:35 AM PDT 5:29 PM PDT
Civil Twilight 7:03 AM PDT 6:01 PM PDT
Nautical Twilight 6:26 AM PDT 6:38 PM PDT
Astronomical Twilight 5:50 AM PDT 7:14 PM PDT
Moon 6:35 AM PDT (11/2) 5:05 PM PDT (11/2)
Length of Visible Light 10h 58m
Length of Day
9h 53m
Waning Crescent, 1% of the Moon is Illuminated
Nov 2
Waning Crescent
Nov 3
New
Nov 9
First Quarter
Nov 17
Full
Nov 25
Last Quarter

Hourly Weather History & Observations

Time (PDT) Temp. Windchill Dew Point Humidity Pressure Visibility Wind Dir Wind Speed Gust Speed Precip Events Conditions
12:53 AM 39.9 °F - 37.0 °F 89% 29.99 in 8.0 mi Calm Calm - N/A   Clear
1:53 AM 39.9 °F - 37.0 °F 89% 29.94 in 9.0 mi Calm Calm - N/A   Mostly Cloudy
2:53 AM 42.1 °F - 37.0 °F 82% 29.87 in 10.0 mi Calm Calm - N/A   Overcast
3:53 AM 43.0 °F - 39.0 °F 86% 29.83 in 10.0 mi Calm Calm - 0.01 in   Overcast
4:53 AM 42.1 °F - 39.0 °F 89% 29.80 in 9.0 mi Calm Calm - 0.01 in   Overcast
5:53 AM 41.0 °F - 39.0 °F 93% 29.75 in 7.0 mi Calm Calm - 0.01 in   Overcast
6:53 AM 42.1 °F - 39.9 °F 92% 29.72 in 6.0 mi Calm Calm - 0.00 in Rain Light Rain
7:53 AM 42.1 °F - 39.9 °F 92% 29.70 in 5.0 mi Calm Calm - 0.03 in Rain Light Rain
8:53 AM 42.1 °F - 39.9 °F 92% 29.70 in 3.0 mi Calm Calm - 0.06 in Rain Light Rain
9:53 AM 43.0 °F 41.3 °F 41.0 °F 93% 29.67 in 5.0 mi NNE 3.5 mph - 0.11 in Rain Light Rain
10:53 AM 48.9 °F - 45.0 °F 86% 29.64 in 5.0 mi SSW 10.4 mph - 0.06 in Rain Light Rain
11:00 AM 48.2 °F - 46.4 °F 93% 29.63 in 10.0 mi SSW 16.1 mph 21.9 mph 0.00 in   Overcast
11:53 AM 51.1 °F - 45.0 °F 80% 29.62 in 10.0 mi SSW 18.4 mph 25.3 mph 0.01 in   Overcast
12:32 PM 51.8 °F - 44.6 °F 76% 29.61 in 10.0 mi SW 19.6 mph 28.8 mph N/A   Overcast
12:53 PM 51.1 °F - 43.0 °F 74% 29.61 in 10.0 mi SSW 16.1 mph 32.2 mph N/A   Overcast
1:53 PM 51.1 °F - 42.1 °F 71% 29.60 in 10.0 mi SW 16.1 mph 28.8 mph N/A   Overcast
2:53 PM 52.0 °F - 41.0 °F 66% 29.58 in 10.0 mi SW 18.4 mph 31.1 mph N/A   Overcast
3:53 PM 53.1 °F - 35.1 °F 50% 29.59 in 10.0 mi SW 33.4 mph 44.9 mph N/A   Mostly Cloudy
4:53 PM 51.1 °F - 34.0 °F 52% 29.61 in 10.0 mi SW 24.2 mph 40.3 mph N/A   Overcast
5:53 PM 48.9 °F - 30.9 °F 50% 29.65 in 10.0 mi SW 32.2 mph 41.4 mph N/A   Overcast
6:53 PM 46.9 °F - 30.0 °F 52% 29.68 in 10.0 mi SW 16.1 mph 27.6 mph N/A   Overcast
7:53 PM 46.0 °F 37.8 °F 28.9 °F 51% 29.70 in 10.0 mi SW 23.0 mph 35.7 mph N/A   Overcast
8:53 PM 43.0 °F 33.5 °F 30.9 °F 62% 29.73 in 10.0 mi SW 24.2 mph 39.1 mph 0.00 in Rain Light Rain
9:44 PM 42.8 °F 34.5 °F 33.8 °F 70% 29.74 in 10.0 mi WSW 18.4 mph 28.8 mph 0.00 in Rain Light Rain
9:53 PM 42.1 °F 33.6 °F 32.0 °F 67% 29.77 in 10.0 mi SW 18.4 mph 25.3 mph 0.00 in Rain Light Rain
10:53 PM 41.0 °F 32.8 °F 32.0 °F 70% 29.78 in 10.0 mi WSW 16.1 mph 24.2 mph 0.01 in   Overcast
11:53 PM 39.9 °F 32.1 °F 32.0 °F 73% 29.78 in 10.0 mi SW 13.8 mph 21.9 mph N/A   Overcast